Thedford, NE

4:51 AM CST on December 03, 2016 (GMT -0600)
Thedford

Weather History for KTIF - October, 2013

Change the Weather History Date:

Thursday, October 24, 2013

  Actual Average (KLBF) Record (KLBF)
Temperature  
Mean Temperature 40 °F 46 °F  
Max Temperature 46 °F 61 °F 86 °F (1940)
Min Temperature 33 °F 31 °F 9 °F (1887)
Degree Days  
Heating Degree Days 26 19  
Month to date heating degree days 353  
Since 1 July heating degree days 524  
Cooling Degree Days 0 0  
Month to date cooling degree days 0  
Year to date cooling degree days 765  
Moisture  
Dew Point 32 °F    
Average Humidity 75    
Maximum Humidity 91    
Minimum Humidity 60    
Precipitation  
Precipitation 0.00 in 0.04 in 0.72 in (1997)
Month to date precipitation 1.27  
Year to date precipitation 18.90  
Snow  
Snow 0.00 in 0.10 in 3.20 in (1997)
Month to date snowfall 1.4  
Since 1 July snowfall 1.6  
Since 1 September snowfall 1.6  
Snow Depth -    
Sea Level Pressure  
Sea Level Pressure 30.32 in    
Wind  
Wind Speed 4 mph (East)    
Max Wind Speed 8 mph    
Max Gust Speed -    
Visibility 10 miles    
Events      
T = Trace of Precipitation, MM = Missing Value Source: NWS Daily Summary

Daily Weather History Graph

Daily Weather History Graph

Search for Another Location

Airport or City:

Trip Planner

Search our weather history database for the weather conditions in past years. The results will help you decide how hot, cold, wet, or windy it might be!

Date:

Astronomy

Oct. 24, 2013 Rise Set
Actual Time 8:05 AM CDT 6:46 PM CDT
Civil Twilight 7:36 AM CDT 7:15 PM CDT
Nautical Twilight 7:04 AM CDT 7:47 PM CDT
Astronomical Twilight 6:31 AM CDT 8:20 PM CDT
Moon 11:10 PM CDT (10/24) 1:09 PM CDT (10/24)
Length of Visible Light 11h 38m
Length of Day
10h 41m
Waning Gibbous, 71% of the Moon is Illuminated
Oct 24
Waning Gibbous
Oct 26
Last Quarter
Nov 3
New
Nov 9
First Quarter
Nov 17
Full

Hourly Weather History & Observations

Time (CDT) Temp. Windchill Dew Point Humidity Pressure Visibility Wind Dir Wind Speed Gust Speed Precip Events Conditions
12:15 AM 42.4 °F 39.6 °F 34.2 °F 72% 30.25 in 10.0 mi North 4.6 mph - N/A   Overcast
12:35 AM 42.3 °F 40.5 °F 35.6 °F 77% 30.26 in 10.0 mi North 3.5 mph - N/A   Overcast
12:55 AM 42.1 °F - 35.2 °F 77% 30.27 in 10.0 mi Calm Calm - N/A   Overcast
1:15 AM 41.5 °F 37.8 °F 35.2 °F 78% 30.27 in 10.0 mi NE 5.8 mph - N/A   Overcast
1:35 AM 41.0 °F 37.1 °F 35.1 °F 79% 30.28 in 10.0 mi NE 5.8 mph - N/A   Overcast
1:55 AM 40.8 °F 36.2 °F 34.9 °F 79% 30.28 in 10.0 mi NNE 6.9 mph - N/A   Overcast
2:15 AM 40.6 °F 37.5 °F 34.9 °F 80% 30.28 in 10.0 mi NNE 4.6 mph - N/A   Overcast
2:35 AM 40.1 °F 35.3 °F 34.3 °F 80% 30.29 in 10.0 mi NNE 6.9 mph - N/A   Overcast
2:55 AM 39.6 °F 34.7 °F 34.0 °F 80% 30.29 in 10.0 mi NNE 6.9 mph - N/A   Overcast
3:15 AM 39.4 °F 34.5 °F 33.8 °F 80% 30.30 in 10.0 mi NNE 6.9 mph - N/A   Overcast
3:35 AM 39.2 °F 35.0 °F 33.4 °F 80% 30.30 in 10.0 mi North 5.8 mph - N/A   Overcast
3:55 AM 39.2 °F 34.2 °F 32.5 °F 77% 30.30 in 10.0 mi NNE 6.9 mph - N/A   Overcast
4:15 AM 38.8 °F 34.6 °F 32.4 °F 78% 30.30 in 10.0 mi NNE 5.8 mph - N/A   Overcast
4:35 AM 38.7 °F 34.3 °F 32.0 °F 77% 30.30 in 10.0 mi North 5.8 mph - N/A   Overcast
4:55 AM 38.3 °F 35.9 °F 31.1 °F 75% 30.31 in 10.0 mi North 3.5 mph - N/A   Overcast
5:15 AM 38.3 °F 33.2 °F 31.1 °F 75% 30.31 in 10.0 mi NNE 6.9 mph - N/A   Overcast
5:35 AM 38.3 °F 34.8 °F 30.7 °F 74% 30.31 in 10.0 mi North 4.6 mph - N/A   Overcast
5:55 AM 38.1 °F 34.6 °F 30.7 °F 75% 30.32 in 10.0 mi North 4.6 mph - N/A   Overcast
6:15 AM 37.9 °F 34.4 °F 30.6 °F 75% 30.32 in 10.0 mi North 4.6 mph - N/A   Overcast
6:35 AM 37.8 °F 35.3 °F 30.7 °F 76% 30.33 in 10.0 mi North 3.5 mph - N/A   Overcast
6:55 AM 37.8 °F - 30.7 °F 76% 30.33 in 10.0 mi Calm Calm - N/A   Overcast
7:15 AM 37.8 °F - 30.7 °F 76% 30.33 in 10.0 mi Calm Calm - N/A   Overcast
7:35 AM 37.8 °F 35.3 °F 30.7 °F 76% 30.33 in 10.0 mi NNE 3.5 mph - N/A   Overcast
7:55 AM 37.6 °F 34.0 °F 31.1 °F 77% 30.33 in 10.0 mi NNE 4.6 mph - N/A   Overcast
8:15 AM 37.6 °F 35.1 °F 31.1 °F 77% 30.34 in 10.0 mi East 3.5 mph - N/A   Overcast
8:35 AM 37.6 °F 35.1 °F 31.3 °F 78% 30.34 in 10.0 mi ENE 3.5 mph - N/A   Overcast
8:55 AM 37.6 °F - 31.5 °F 79% 30.35 in 10.0 mi Calm Calm - N/A   Overcast
9:15 AM 37.6 °F - 31.5 °F 79% 30.35 in 10.0 mi Calm Calm - N/A   Overcast
9:35 AM 37.6 °F 35.1 °F 31.1 °F 77% 30.37 in 10.0 mi ENE 3.5 mph - N/A   Overcast
9:55 AM 37.6 °F 35.1 °F 29.8 °F 74% 30.37 in 10.0 mi ENE 3.5 mph - N/A   Overcast
10:15 AM 37.8 °F 35.3 °F 29.5 °F 72% 30.37 in 10.0 mi East 3.5 mph - N/A   Overcast
10:35 AM 38.3 °F 35.9 °F 30.0 °F 72% 30.37 in 10.0 mi East 3.5 mph - N/A   Overcast
10:55 AM 38.7 °F - 30.4 °F 72% 30.37 in 10.0 mi Calm Calm - N/A   Overcast
11:15 AM 39.2 °F - 30.6 °F 71% 30.37 in 10.0 mi Calm Calm - N/A   Overcast
11:35 AM 39.4 °F 36.1 °F 31.1 °F 72% 30.37 in 10.0 mi South 4.6 mph - N/A   Overcast
11:45 AM 39.2 °F 37.0 °F 30.2 °F 70% 30.38 in 10.0 mi South 3.5 mph - N/A   Overcast
11:55 AM 39.9 °F 37.8 °F 31.3 °F 71% 30.38 in 10.0 mi SSE 3.5 mph - N/A   Overcast
12:15 PM 41.0 °F 38.0 °F 31.8 °F 70% 30.38 in 10.0 mi SE 4.6 mph - N/A   Overcast
12:35 PM 41.4 °F 39.4 °F 31.8 °F 69% 30.38 in 10.0 mi SSW 3.5 mph - N/A   Overcast
12:55 PM 41.9 °F 39.0 °F 32.0 °F 68% 30.37 in 10.0 mi SSW 4.6 mph - N/A   Overcast
1:15 PM 41.9 °F 39.0 °F 32.0 °F 68% 30.36 in 10.0 mi South 4.6 mph - N/A   Overcast
1:35 PM 42.6 °F 40.9 °F 32.0 °F 66% 30.35 in 10.0 mi SSW 3.5 mph - N/A   Overcast
1:55 PM 43.0 °F - 32.4 °F 66% 30.35 in 10.0 mi Calm Calm - N/A   Overcast
2:15 PM 43.2 °F - 32.4 °F 66% 30.34 in 10.0 mi Calm Calm - N/A   Overcast
2:35 PM 43.2 °F - 32.7 °F 67% 30.33 in 10.0 mi Calm Calm - N/A   Overcast
2:55 PM 43.9 °F 41.3 °F 32.5 °F 64% 30.33 in 10.0 mi South 4.6 mph - N/A   Overcast
3:15 PM 44.2 °F 41.8 °F 32.7 °F 64% 30.32 in 10.0 mi South 4.6 mph - N/A   Overcast
3:35 PM 45.0 °F 42.6 °F 32.9 °F 63% 30.32 in 10.0 mi South 4.6 mph - N/A   Overcast
3:55 PM 45.5 °F - 33.1 °F 62% 30.31 in 10.0 mi Calm Calm - N/A   Overcast
4:15 PM 45.7 °F 42.7 °F 33.3 °F 62% 30.31 in 10.0 mi South 5.8 mph - N/A   Overcast
4:35 PM 46.6 °F - 33.4 °F 60% 30.30 in 10.0 mi SSE 8.1 mph - N/A   Overcast
4:55 PM 46.8 °F - 33.6 °F 60% 30.29 in 10.0 mi South 5.8 mph - N/A   Mostly Cloudy
5:15 PM 46.6 °F - 33.8 °F 61% 30.29 in 10.0 mi South 4.6 mph - N/A   Scattered Clouds
5:35 PM 46.4 °F 42.4 °F 33.8 °F 62% 30.29 in 10.0 mi South 8.1 mph - N/A   Scattered Clouds
5:55 PM 45.5 °F 43.2 °F 34.0 °F 64% 30.29 in 10.0 mi SSE 4.6 mph - N/A   Scattered Clouds
6:15 PM 46.8 °F - 34.7 °F 63% 30.29 in 10.0 mi SSE 6.9 mph - N/A   Scattered Clouds
6:35 PM 45.1 °F 42.0 °F 34.3 °F 66% 30.28 in 10.0 mi SSE 5.8 mph - N/A   Scattered Clouds
6:55 PM 43.0 °F 40.3 °F 34.0 °F 71% 30.28 in 10.0 mi SSE 4.6 mph - N/A   Scattered Clouds
7:15 PM 41.2 °F 38.2 °F 33.6 °F 74% 30.29 in 10.0 mi SE 4.6 mph - N/A   Clear
7:35 PM 39.2 °F 37.0 °F 32.5 °F 77% 30.30 in 10.0 mi ESE 3.5 mph - N/A   Clear
7:55 PM 37.6 °F 34.0 °F 32.0 °F 80% 30.30 in 10.0 mi ESE 4.6 mph - N/A   Scattered Clouds
8:15 PM 37.4 °F 33.8 °F 32.4 °F 82% 30.30 in 10.0 mi SE 4.6 mph - N/A   Scattered Clouds
8:35 PM 37.0 °F 33.3 °F 32.7 °F 84% 30.30 in 10.0 mi SE 4.6 mph - N/A   Clear
8:55 PM 36.1 °F 32.3 °F 32.2 °F 86% 30.31 in 10.0 mi SE 4.6 mph - N/A   Clear
9:15 PM 35.4 °F 31.5 °F 32.0 °F 87% 30.30 in 10.0 mi SE 4.6 mph - N/A   Clear
9:35 PM 34.2 °F 31.2 °F 31.6 °F 90% 30.30 in 10.0 mi ESE 3.5 mph - N/A   Scattered Clouds
9:55 PM 34.7 °F - 32.0 °F 90% 30.30 in 10.0 mi Calm Calm - N/A   Scattered Clouds
10:15 PM 35.2 °F 32.4 °F 32.2 °F 89% 30.30 in 10.0 mi SSE 3.5 mph - N/A   Scattered Clouds
10:35 PM 36.7 °F - 33.3 °F 87% 30.30 in 10.0 mi Calm Calm - N/A   Scattered Clouds
10:55 PM 33.6 °F - 31.1 °F 90% 30.31 in 7.0 mi Calm Calm - N/A   Scattered Clouds
11:15 PM 35.2 °F - 32.9 °F 91% 30.30 in 7.0 mi Calm Calm - N/A   Mostly Cloudy
11:35 PM 35.1 °F - 32.4 °F 90% 30.29 in 7.0 mi Calm Calm - N/A   Mostly Cloudy
11:55 PM 34.9 °F - 32.4 °F 91% 30.29 in 7.0 mi Calm Calm - N/A   Scattered Clouds